Temp
21 21 20 19 19 19 19 19 20 21 20 19 19 21 22 22 20 19 20 19 18 18 18 17 17 17 17 17 18 18 19 19 19 19 19 18 18 18 18 18 18 18 18 19 19 19 19 19 18 18 17 17 17 17 17 17 17 17 18 18 17 17 17 17 17 17 16 16 16 16 17 17 16 16 16 16 17 17 18 18 18 18 18 18 18 18 18
21 21 21 20 20 19 20 19 19 20 20 18 17 17 18 20 20 19 20 18 17 17 17 16 16 17 17 18 18 18 19 19 19 19 18 18 18 18 18 18 18 17 17 18 18 19 19 20 20 19 19 19 18 18 18 17 17 17 17 17 17 17 17 17 16 16 16 16 16 16 16 16 16 16 16 16 16 17 17 18 18 17 18 18 18 18 18
20 21 21 20 20 20 19 19 19 20 19 18 18 16 15 17 18 18 18 17 16 16 17 16 16 16 17 17 18 18 18 19 19 19 18 18 18 18 18 17 17 16 15 15 16 16 17 18 18 18 19 19 19 19 18 18 18 17 17 17 17 17 17 17 17 17 17 17 17 16 16 16 16 16 16 16 16 16 17 17 17 17 17 17 18 18 18
19 21 20 20 20 20 19 19 19 19 18 18 19 17 15 15 16 16 15 15 15 16 17 16 16 16 16 17 17 17 18 18 18 17 17 17 17 17 16 15 14 13 13 13 14 14 14 15 15 15 16 18 18 19 19 19 19 18 18 17 17 17 17 17 17 17 17 17 17 17 16 16 16 16 16 16 16 16 16 17 17 17 16 17 17 17 17
19 20 21 20 20 18 18 18 18 19 19 18 18 18 17 17 16 16 16 16 16 17 17 16 16 16 16 16 15 15 16 17 16 14 14 14 14 14 14 13 12 12 12 12 12 13 13 13 13 13 13 14 16 17 18 18 19 19 19 18 18 18 18 18 18 18 18 18 17 17 17 16 16 16 16 16 16 16 16 16 16 16 16 16 16 16 17
18 18 19 19 18 16 16 16 18 19 20 19 18 18 18 18 17 16 18 18 18 17 17 16 15 15 15 14 13 13 13 13 12 11 11 10 10 10 10 10 11 11 11 11 11 11 12 12 12 12 12 12 14 15 15 16 17 18 18 18 18 18 18 18 18 18 18 18 18 17 17 17 16 16 16 16 16 16 15 15 15 16 16 16 16 16 16
17 16 16 16 16 15 15 16 18 19 19 19 18 18 18 18 18 17 18 18 18 18 18 16 15 14 14 13 12 12 11 11 10 9 9 8 8 7 7 7 8 9 10 10 10 10 10 10 11 11 11 11 12 13 13 14 15 16 16 17 16 16 16 17 17 17 18 18 18 18 18 17 17 17 17 16 16 16 15 15 15 15 15 15 15 16 16
16 16 15 14 14 15 16 16 17 17 17 17 17 17 17 18 18 18 18 18 18 18 17 15 14 13 12 12 11 10 10 10 9 9 8 8 7 7 7 7 7 7 8 8 8 8 8 9 9 9 10 10 11 11 12 12 13 14 14 15 15 14 14 15 15 16 16 17 17 17 17 17 17 17 17 17 17 16 16 15 15 15 15 15 15 15 15
15 16 15 14 13 14 15 15 15 16 15 16 16 15 16 18 19 18 18 16 15 15 14 13 12 12 11 10 10 10 9 9 8 8 8 8 8 7 7 7 7 7 6 7 7 7 8 8 8 9 9 9 10 11 12 12 12 13 14 14 13 13 13 14 14 15 15 16 16 16 16 17 17 17 17 17 17 17 16 16 16 15 15 15 15 15 15
16 16 15 14 13 13 13 13 14 15 16 16 17 16 15 16 17 17 16 15 13 13 12 12 12 12 11 10 10 10 10 9 9 9 9 9 9 8 7 6 6 7 7 7 7 8 8 8 8 9 9 9 9 10 11 12 12 13 13 13 13 12 13 13 14 14 14 15 15 15 16 16 16 16 16 16 17 17 17 16 16 16 16 15 15 15 15
17 16 15 14 13 12 12 12 13 14 15 16 16 16 14 14 16 16 16 15 14 13 12 12 12 12 11 10 11 11 11 11 11 10 10 10 9 9 8 7 7 8 8 8 8 8 9 9 9 9 10 10 10 10 11 12 12 13 13 12 12 13 13 13 13 13 14 14 15 15 15 15 15 15 15 16 16 16 16 16 16 16 16 16 16 16 15
17 17 15 13 12 11 12 13 13 14 15 15 15 14 13 14 16 16 16 15 14 14 13 13 13 13 12 11 12 13 13 12 12 12 12 11 11 11 11 10 10 10 10 10 10 10 10 10 10 10 10 10 10 10 11 11 12 12 12 11 12 12 12 12 12 13 13 14 14 14 14 14 14 14 14 15 15 15 15 16 16 16 16 17 16 16 16
16 16 15 12 11 11 12 13 14 15 14 14 14 13 14 16 16 16 16 15 14 14 13 13 13 13 13 13 13 13 13 13 12 13 12 12 12 12 11 11 11 11 11 11 11 11 11 10 10 10 10 10 10 10 11 11 11 10 10 10 10 10 11 11 11 12 12 13 13 13 13 13 13 14 14 14 14 15 15 15 16 16 16 16 16 16 16
16 16 15 12 10 11 12 13 15 15 14 13 13 14 15 16 16 16 15 13 13 13 13 12 12 13 13 13 13 12 12 12 12 12 12 12 12 11 11 11 10 11 11 11 11 11 10 10 10 10 10 10 10 10 10 10 10 9 9 9 9 9 10 10 10 10 11 11 12 12 12 12 13 13 13 14 14 14 15 15 15 15 16 16 16 16 16
15 15 14 11 10 11 13 14 14 14 14 13 14 14 14 14 15 15 14 13 13 13 12 12 12 12 12 12 12 12 12 11 12 12 11 11 11 11 11 11 10 10 11 11 10 10 10 10 9 9 9 9 9 9 9 9 9 9 9 9 9 9 9 9 9 9 9 10 10 11 11 12 12 12 13 13 13 14 14 14 15 15 15 15 16 16 16
14 13 11 10 11 12 13 13 12 12 13 13 13 13 13 13 14 14 12 12 13 13 12 12 12 12 12 12 12 11 11 11 11 11 11 11 11 10 11 10 9 10 10 10 10 10 10 9 9 9 9 9 9 9 9 9 9 9 9 9 9 9 9 9 9 9 9 9 9 9 10 10 11 12 12 13 13 13 14 14 14 15 15 15 15 16 16
13 12 11 11 12 13 13 13 12 13 13 12 12 11 12 12 13 12 11 11 11 12 12 12 12 12 12 11 11 11 11 11 11 11 11 10 10 10 10 10 9 9 10 10 10 10 9 9 9 9 9 9 10 10 10 10 9 10 9 9 9 9 9 9 9 9 9 9 9 9 9 9 10 10 11 12 12 13 13 14 14 14 15 15 15 15 15
12 12 12 13 12 12 13 12 12 13 13 12 11 11 10 10 11 11 10 10 10 10 11 11 11 11 11 11 11 11 11 11 11 11 10 10 10 10 10 9 9 9 9 10 10 9 9 9 10 10 10 10 10 10 10 10 10 9 9 9 9 8 8 8 8 8 8 8 9 9 8 9 9 9 10 11 11 12 13 13 14 14 14 15 15 15 15
12 11 11 12 12 12 12 12 12 12 12 12 11 10 9 10 10 10 10 10 9 9 10 10 10 10 10 10 11 11 11 11 11 11 10 10 10 9 9 9 8 9 9 9 10 10 10 10 10 10 10 10 10 10 10 9 9 9 9 8 8 8 8 7 7 7 7 7 8 8 8 8 9 9 9 10 10 11 12 13 13 14 14 14 15 15 15
12 12 12 12 12 12 12 12 12 11 11 11 11 11 10 10 10 10 10 10 10 10 10 10 10 10 10 10 10 10 11 11 11 10 10 9 9 9 9 8 8 8 9 9 10 10 10 10 10 10 9 9 9 9 9 8 8 8 8 7 7 7 7 7 7 7 7 7 7 7 7 8 8 8 9 9 10 10 11 12 12 12 12 13 13 14 14
11 11 12 12 12 11 12 12 11 11 11 11 11 11 11 10 10 10 10 10 10 10 10 10 10 10 10 10 10 10 11 11 10 10 9 9 9 8 8 8 8 8 9 9 9 9 9 9 9 9 9 9 8 8 8 7 7 7 6 6 6 6 6 6 6 6 6 6 6 6 7 7 7 7 8 8 9 9 10 10 10 10 10 10 11 12 12
10 11 11 12 11 10 11 11 12 12 12 12 11 11 11 11 11 11 11 10 11 10 10 10 10 10 9 9 10 10 10 10 9 9 9 8 8 8 8 8 8 9 9 9 8 8 9 9 9 8 8 8 8 7 7 7 6 6 5 5 5 5 5 5 5 5 5 5 5 6 6 6 6 7 7 7 7 8 9 9 9 9 10 10 10 10 10
11 11 11 12 12 10 11 12 12 12 12 12 12 12 11 11 11 11 11 11 10 10 10 10 10 9 9 9 9 9 10 9 9 9 8 7 8 8 8 8 9 9 8 8 8 8 8 8 8 8 8 7 7 7 7 6 5 5 5 5 5 5 5 5 4 4 4 4 4 5 5 5 5 6 6 7 7 7 8 9 9 9 10 9 10 10 10
12 12 12 13 12 11 11 12 12 12 12 12 12 11 11 11 11 11 11 10 10 10 10 10 9 9 9 9 8 8 9 8 8 7 7 7 8 8 8 8 8 8 7 7 8 8 8 8 7 7 7 7 7 6 5 5 4 4 4 4 4 4 4 4 4 3 3 3 3 3 4 4 4 5 5 6 6 7 7 8 8 9 10 9 9 10 10
12 12 13 13 12 11 12 12 12 12 12 12 11 11 11 11 11 11 10 10 10 10 10 10 9 9 8 8 8 8 8 8 7 6 6 7 7 7 7 7 7 7 7 7 7 8 8 7 7 7 7 7 6 5 5 4 4 4 4 4 4 4 4 3 3 3 3 2 3 3 3 3 4 4 4 5 5 6 6 7 7 8 9 9 9 9 10
12 13 13 13 12 12 12 12 11 11 11 11 11 11 10 9 9 10 10 10 9 9 9 9 9 8 8 8 7 7 7 6 6 6 6 7 7 6 6 6 6 6 6 6 7 7 7 7 7 7 7 6 6 5 5 4 4 4 4 3 3 3 3 3 3 2 2 2 2 2 2 2 3 3 3 4 4 5 5 6 6 7 8 8 8 8 9
13 13 13 12 12 12 11 11 11 11 11 11 11 11 10 9 9 10 10 9 9 9 9 9 9 8 8 8 7 7 6 6 6 6 6 6 6 6 5 5 5 6 6 6 7 7 7 7 7 7 6 6 6 5 5 4 4 4 3 3 3 3 3 3 2 2 2 2 2 2 2 2 2 2 2 3 3 3 4 4 5 5 6 7 8 8 8
13 13 12 12 11 11 11 11 11 11 12 11 11 11 11 10 10 10 10 9 9 9 9 9 9 8 8 7 7 6 6 6 5 5 5 5 5 5 4 5 5 5 6 6 7 6 6 6 6 6 6 6 6 5 4 4 4 4 3 3 3 3 2 2 2 3 3 2 2 2 2 2 2 2 2 2 2 2 3 4 4 5 5 6 6 7 7
12 12 12 12 12 12 12 12 11 11 11 11 11 11 11 10 10 9 9 10 10 10 9 10 9 8 8 7 6 6 6 5 5 5 5 4 4 4 4 4 4 4 6 6 6 5 5 6 6 6 6 6 5 5 4 4 4 4 3 3 3 3 2 2 2 2 3 3 3 2 2 1 1 1 1 1 2 2 2 3 3 3 3 4 5 6 6
12 12 11 12 12 12 11 11 11 11 11 11 11 11 11 10 9 9 9 10 10 10 10 9 9 8 8 7 6 6 6 5 4 4 4 4 4 3 2 2 2 4 5 5 4 4 5 5 5 6 6 6 5 5 4 4 4 3 3 3 3 3 2 2 2 2 2 2 2 2 1 1 1 1 2 2 2 2 2 2 2 2 2 3 4 5 5
12 11 11 11 11 11 11 11 11 11 11 11 11 10 10 10 9 9 9 9 10 9 9 9 9 8 7 6 6 5 4 3 2 3 3 3 3 2 1 1 1 2 3 3 3 4 4 4 4 5 6 6 5 5 4 4 3 3 3 3 3 3 3 3 2 2 2 2 1 1 1 1 1 2 2 2 2 2 2 2 2 2 2 3 4 5 5
11 11 11 10 11 11 11 11 11 11 11 11 10 10 10 10 9 9 9 9 9 9 9 9 8 7 6 5 5 4 3 2 2 2 2 2 2 2 2 1 1 1 2 2 3 4 4 4 5 6 6 6 5 5 4 4 3 3 3 2 2 3 3 3 3 3 3 2 2 1 1 1 1 2 2 2 2 2 2 2 2 2 2 3 4 5 5
11 10 10 10 10 10 10 11 11 11 11 11 10 10 10 10 10 10 9 9 9 9 9 8 7 6 5 4 4 3 2 2 2 2 1 1 1 1 1 1 2 2 2 3 4 4 4 5 6 6 6 5 5 5 4 4 3 3 3 2 2 3 3 3 3 3 3 3 3 2 2 2 2 2 2 2 2 1 1 1 2 2 3 4 4 4 4
11 11 11 10 10 10 10 11 11 11 11 11 11 10 10 10 10 10 9 9 9 9 8 7 6 4 4 3 3 2 2 2 2 2 1 1 1 1 2 2 2 2 3 4 4 5 5 6 6 5 5 5 5 5 4 4 3 3 3 2 2 3 3 3 3 3 3 4 3 3 3 3 3 2 2 2 2 2 2 2 3 3 4 4 4 3 3
12 11 11 11 11 11 11 11 11 10 10 10 10 10 10 10 10 9 8 8 9 8 8 7 5 4 4 3 2 2 2 1 2 2 1 1 1 1 1 1 2 2 3 4 5 5 6 6 5 5 5 5 5 5 4 4 4 3 3 2 2 3 3 3 3 3 4 4 4 3 3 3 3 4 4 3 3 3 3 3 3 3 3 3 3 3 3
12 11 11 11 11 11 11 11 11 10 10 10 10 10 10 10 10 9 9 9 9 8 7 6 4 4 3 3 2 2 2 2 2 2 1 1 1 1 1 1 2 3 4 5 5 5 5 5 5 5 5 6 5 5 5 4 4 4 3 3 3 3 3 3 3 3 3 4 4 4 4 4 4 5 5 5 5 4 3 3 3 3 2 3 3 3 3
12 11 11 11 11 11 10 10 10 10 10 10 10 10 9 9 10 9 9 9 9 8 7 5 4 4 3 3 3 2 2 2 2 2 1 1 1 1 1 2 3 3 4 5 5 5 5 5 5 5 6 6 6 5 5 5 4 4 3 3 3 3 3 3 3 3 3 4 4 4 4 4 4 5 5 5 5 5 4 4 3 3 3 4 4 4 4
11 11 11 11 11 10 10 10 10 10 10 10 10 9 9 9 9 9 9 9 9 8 7 6 5 4 3 3 3 3 2 2 2 2 2 2 1 1 1 2 3 4 5 5 4 5 5 4 5 5 6 6 6 6 5 5 5 4 4 3 3 3 2 3 3 3 3 3 4 4 4 4 4 5 5 5 4 4 5 4 4 4 4 4 4 4 4
11 11 10 10 10 10 10 10 10 10 10 10 9 9 9 9 9 9 9 9 9 8 8 7 6 6 5 4 3 3 3 3 3 2 2 2 2 1 2 2 4 4 4 4 4 4 4 4 5 5 5 5 5 5 5 5 5 5 4 4 3 3 2 2 2 2 3 3 3 3 3 3 3 4 5 4 4 4 4 4 4 4 4 4 4 4 4
11 10 10 10 10 10 10 10 10 10 10 9 9 9 9 9 9 9 9 9 9 8 8 8 8 7 7 6 6 5 5 4 4 3 3 3 2 2 2 4 4 4 4 4 4 4 4 4 5 5 5 4 4 4 5 5 5 5 5 4 4 3 2 2 2 2 2 2 2 2 3 3 2 3 3 4 3 3 3 3 3 4 4 4 4 3 3
10 10 10 10 10 10 10 10 10 10 9 9 9 9 9 9 9 9 9 9 9 9 8 8 8 8 8 8 8 7 6 5 4 4 3 3 3 3 4 5 5 4 4 4 4 5 5 4 4 4 4 4 4 4 4 5 5 5 5 5 4 3 3 2 2 2 2 1 1 1 2 2 1 1 2 2 3 2 2 2 2 2 2 3 3 3 3
10 9 10 9 9 9 9 9 9 9 9 9 9 9 9 9 9 9 9 9 9 9 8 8 8 8 7 7 7 7 7 6 6 5 4 4 4 5 6 6 5 4 4 4 4 5 5 5 4 4 4 4 4 4 5 5 5 6 6 5 4 4 3 3 3 2 2 2 1 1 1 0 0 0 1 1 2 2 2 1 1 1 1 1 2 2 2
8 8 9 9 9 9 9 9 9 9 9 9 9 9 9 9 9 9 9 9 9 9 8 8 8 7 7 7 7 7 7 7 7 6 6 6 6 6 6 6 5 4 4 4 4 5 5 4 4 4 4 4 4 5 5 5 6 6 6 5 5 4 4 3 3 3 2 2 1 1 0 0 -0 -0 -0 0 1 1 1 1 1 0 0 0 1 1 1
6 6 7 7 8 8 8 9 9 9 9 9 9 9 8 8 8 8 9 9 9 8 8 8 8 8 8 7 7 7 7 8 8 7 7 7 6 5 5 5 4 4 4 4 4 4 4 4 3 4 4 4 5 5 5 6 6 6 6 6 5 5 4 4 3 3 2 2 2 1 1 0 0 -0 -0 -0 -0 0 0 0 0 0 0 -0 -0 -0 -0
7 6 6 6 6 6 7 8 9 8 8 9 9 9 8 8 8 8 8 9 8 9 8 8 8 8 8 8 8 8 8 8 8 8 8 8 7 5 4 4 4 4 4 4 4 4 4 3 3 4 4 4 5 5 6 6 7 7 6 6 6 5 5 4 4 3 3 2 2 2 1 1 0 0 0 0 -0 -0 -0 -1 -0 -0 -0 -1 -1 -1 -0
8 7 7 7 7 6 6 7 8 8 8 8 9 9 9 9 8 8 8 8 8 8 8 8 8 8 8 8 8 8 7 7 7 7 7 7 6 5 4 4 4 4 3 3 3 3 3 3 3 4 4 4 5 5 5 6 6 6 6 6 6 5 5 5 4 4 3 3 2 2 1 1 1 0 0 0 0 0 0 -0 -1 -1 -1 -1 -1 -1 -1
9 8 8 8 7 7 7 7 8 9 9 9 8 8 8 9 8 8 8 9 8 8 8 8 8 8 8 8 8 8 8 8 8 7 7 6 6 5 4 4 4 4 3 3 3 3 3 3 3 4 4 4 5 5 5 5 5 5 5 5 5 5 5 5 4 4 3 3 2 2 2 1 1 1 1 1 0 0 0 0 -0 -0 -0 -0 -1 -1 -1
8 9 9 8 8 8 8 8 8 8 9 8 8 8 8 8 8 8 8 8 8 9 8 8 8 8 8 8 7 7 7 8 8 8 7 6 5 5 4 4 4 4 3 3 3 3 3 3 3 3 4 4 5 5 5 4 4 4 4 4 4 4 4 4 4 4 3 3 3 3 2 2 1 1 1 0 0 0 0 -0 -0 -0 -0 -0 -1 -1 -1
8 8 9 8 8 8 8 8 8 8 8 8 8 8 8 8 8 8 8 8 8 9 9 8 8 8 8 8 7 7 7 7 7 7 7 7 6 5 4 4 4 4 4 3 3 3 3 3 3 3 4 4 4 4 4 4 3 3 3 3 3 3 3 3 4 4 3 3 3 2 2 1 1 0 -0 -0 -0 -1 -1 -1 -1 -1 -1 -1 -1 -1 -1
8 8 8 8 8 8 8 8 8 8 8 8 8 8 8 8 8 8 8 8 8 8 8 8 8 8 8 8 7 7 7 7 7 7 7 6 6 5 5 4 4 4 4 4 4 3 3 3 3 3 4 4 4 4 4 3 3 3 3 3 2 2 2 3 3 3 3 3 2 2 1 0 -0 -1 -1 -1 -2 -2 -2 -2 -2 -2 -2 -2 -2 -2 -2
8 7 7 8 8 9 9 9 9 9 8 8 8 8 8 8 8 8 7 7 6 6 7 8 8 8 9 9 8 7 7 7 7 7 6 6 6 5 5 4 4 4 5 4 4 4 4 3 3 3 4 4 3 3 3 3 3 3 3 2 2 2 2 2 2 2 2 2 2 1 1 0 -0 -1 -1 -1 -2 -2 -2 -2 -2 -2 -2 -3 -3 -3 -3
7 7 8 8 9 9 9 9 9 9 8 8 8 8 8 8 8 8 7 7 6 6 7 7 8 8 8 8 9 8 8 7 7 6 6 6 5 5 4 4 4 4 4 4 4 4 4 4 3 3 4 4 3 3 3 3 3 3 2 2 2 2 2 2 2 2 1 1 1 1 1 1 0 -0 -1 -1 -1 -2 -2 -2 -3 -3 -3 -4 -4 -4 -4
Height
723 724 730 734 736 737 739 740 735 730 732 737 737 730 723 723 737 750 747 746 756 758 757 763 763 762 765 765 763 763 763 764 766 767 770 772 773 774 775 776 777 777 778 777 777 778 779 780 782 783 785 786 786 787 788 789 790 791 793 793 794 795 795 796 798 799 800 802 803 804 805 806 807 808 808 809 810 811 812 813 815 816 817 818 819 820 821
723 721 725 728 732 735 737 740 740 735 737 747 753 751 741 732 735 742 743 751 761 761 762 765 764 763 764 763 763 763 764 765 766 768 771 773 775 777 778 779 780 782 783 782 781 781 780 781 782 783 784 785 787 788 789 791 792 793 795 796 796 797 797 798 799 800 801 802 803 804 805 806 807 808 808 809 809 811 812 813 814 814 815 816 817 819 820
727 721 723 726 729 734 738 741 741 739 744 749 752 761 764 752 745 747 750 759 765 764 763 765 766 767 765 765 767 767 767 767 767 771 774 775 777 779 780 783 785 788 789 789 788 787 787 787 787 787 787 787 788 789 790 792 794 795 797 797 798 799 799 800 800 801 802 803 803 804 804 806 807 807 808 808 809 810 811 811 812 812 814 815 816 817 819
733 724 725 728 728 733 739 742 741 741 748 752 749 755 765 764 760 760 763 768 769 765 765 767 769 770 770 771 770 770 771 771 771 776 779 780 782 783 785 789 792 795 797 796 796 795 795 794 793 793 792 790 791 792 792 793 795 796 797 798 799 800 800 802 802 802 804 804 804 805 805 805 806 807 808 808 809 810 810 810 811 812 813 814 815 816 818
738 727 725 728 734 744 748 746 743 739 742 750 751 751 756 759 761 763 763 764 765 764 765 769 772 774 775 776 777 778 779 777 779 785 789 791 792 793 795 798 800 802 803 803 803 802 801 801 799 799 798 796 796 796 796 796 797 797 798 798 800 801 801 803 803 803 805 804 804 805 805 805 806 806 807 807 808 809 809 809 810 810 811 812 814 815 817
742 737 732 733 744 757 758 750 743 737 737 745 751 754 753 753 758 760 755 754 758 761 763 769 775 777 779 783 786 787 788 789 792 796 799 802 804 804 807 808 809 809 809 808 808 807 806 806 805 804 804 803 802 801 800 800 799 799 800 801 803 804 804 805 805 805 806 805 805 806 805 805 805 806 807 807 807 808 808 808 809 809 811 812 813 814 816
745 748 749 754 760 762 757 750 743 738 738 742 747 752 752 750 754 757 755 755 757 758 761 769 776 780 783 787 791 793 795 798 800 802 806 810 812 814 816 817 817 816 815 814 813 811 811 811 810 810 809 808 807 806 805 804 803 802 803 804 806 807 808 808 808 808 808 807 807 807 806 806 806 806 806 807 807 808 808 809 809 809 810 811 812 813 814
753 754 758 766 769 761 754 752 748 746 748 750 752 758 756 751 752 754 755 757 758 758 764 772 779 784 788 792 797 801 802 804 805 808 813 815 817 819 820 820 821 821 820 819 818 817 816 815 814 814 814 813 812 810 808 807 807 806 807 808 809 810 810 811 810 810 809 809 809 809 808 807 807 807 807 807 807 807 808 809 809 809 810 810 811 812 812
757 754 759 767 770 766 763 761 757 756 759 759 759 764 763 754 751 754 757 763 768 770 774 779 783 788 792 799 806 807 807 809 811 813 816 817 819 820 820 821 822 822 822 822 821 821 820 819 818 818 817 817 815 813 812 812 811 811 811 811 812 813 813 813 812 812 811 810 810 810 810 809 809 808 807 807 806 806 807 807 808 808 808 809 809 810 810
751 750 759 767 771 775 776 773 767 761 760 757 755 762 770 764 758 760 764 770 777 781 783 785 787 789 796 805 810 809 810 812 813 815 817 817 818 820 821 822 822 822 822 822 822 822 821 821 821 820 820 820 819 817 816 815 815 814 814 814 815 815 815 814 814 814 813 813 813 813 812 811 810 809 808 807 806 805 805 806 806 806 807 807 807 807 807
745 749 758 766 774 781 779 776 774 767 763 760 756 764 776 774 766 766 769 775 781 784 787 789 789 792 800 806 807 807 809 810 812 814 815 816 817 818 819 820 821 821 821 821 821 822 822 822 822 822 822 822 821 819 818 818 818 817 816 816 817 816 816 815 815 816 816 816 816 815 814 813 812 810 809 807 806 805 805 804 804 804 805 805 805 805 805
744 747 756 768 780 784 779 774 773 770 766 764 765 774 780 775 768 768 771 776 781 783 786 789 789 792 797 800 801 803 806 808 811 812 813 815 816 817 818 819 819 819 819 820 820 821 821 822 822 822 822 822 821 820 819 819 819 818 818 818 817 817 817 817 818 819 818 818 817 816 815 814 812 811 809 808 807 805 804 804 803 803 802 802 802 802 802
746 748 758 774 784 785 781 776 771 769 768 770 775 781 777 769 767 769 773 778 783 785 788 791 791 792 793 796 800 804 806 809 811 812 814 815 815 817 818 819 819 819 819 820 820 821 821 822 821 822 822 821 821 820 820 820 819 819 819 818 818 818 818 818 818 818 818 818 817 815 814 813 811 810 809 807 806 805 804 803 802 801 801 800 800 800 800
750 747 756 775 788 788 783 777 769 766 770 777 781 779 772 767 768 772 777 784 788 789 792 794 796 796 797 799 804 807 810 812 813 814 815 816 816 818 818 819 819 820 819 820 820 821 821 822 821 821 821 821 821 821 821 821 820 820 819 819 818 818 818 818 817 817 817 816 815 814 813 811 810 808 807 807 805 804 803 802 800 799 798 798 798 798 798
755 753 764 781 792 789 779 774 773 772 774 779 781 778 776 776 776 777 783 788 790 792 795 797 799 801 802 805 808 811 813 814 814 815 816 816 817 818 817 818 820 820 819 820 820 821 821 821 822 822 822 822 822 822 822 821 821 821 820 819 818 818 817 817 816 816 816 815 813 812 811 809 808 806 805 805 804 802 801 800 799 798 796 796 796 795 795
762 769 783 791 791 786 779 778 782 782 780 780 781 781 783 784 783 785 790 793 793 794 797 800 802 804 806 808 811 813 815 815 816 816 817 817 817 818 818 819 819 819 819 820 820 821 821 821 822 822 822 822 822 822 822 821 821 820 819 819 818 817 817 816 815 815 814 813 812 811 809 808 807 805 803 803 801 800 799 798 797 796 795 794 793 792 792
771 778 787 788 785 783 782 783 785 784 783 785 787 788 789 789 789 792 796 799 799 799 800 803 805 807 809 811 813 814 815 816 816 817 817 818 818 819 819 819 820 820 820 820 820 821 821 821 821 821 821 821 821 820 820 820 820 819 818 818 817 817 816 815 814 814 813 812 811 810 809 808 806 804 802 801 799 798 797 796 795 794 793 792 791 790 790
777 781 784 784 785 786 786 787 788 787 787 790 792 794 797 798 798 799 801 804 805 805 805 807 809 811 812 814 815 816 816 817 817 817 818 819 819 819 819 820 821 821 820 820 820 821 821 821 820 820 820 820 820 819 819 819 818 818 817 817 816 816 815 814 814 813 812 811 810 809 808 807 805 803 802 800 798 797 795 794 794 792 790 789 788 788 788
780 786 788 787 789 791 790 790 793 793 793 795 796 799 802 803 803 805 806 807 809 810 811 812 813 815 816 816 817 816 816 817 817 818 819 819 820 820 820 821 821 821 820 820 820 820 820 819 819 819 820 819 819 819 819 818 818 817 817 816 815 815 814 814 813 812 811 810 809 807 806 805 803 802 800 799 797 796 794 793 792 790 789 787 786 785 785
780 785 788 788 790 792 791 792 795 796 797 799 800 801 804 805 806 808 809 810 812 813 814 815 816 817 818 819 818 817 817 817 817 818 820 820 821 821 821 821 822 821 820 820 820 820 820 819 819 820 820 820 820 820 819 819 818 817 817 816 816 815 814 813 813 811 810 809 808 806 804 803 801 800 798 797 796 794 793 792 790 789 788 787 785 783 782
787 787 788 789 792 793 793 794 797 798 799 801 802 803 805 806 808 809 810 812 813 814 816 816 816 817 818 819 819 818 816 817 818 820 821 821 822 822 822 822 822 821 820 820 820 821 820 820 820 820 820 820 820 820 819 819 818 818 817 817 816 815 814 813 812 811 810 809 807 806 804 802 800 798 797 796 795 793 791 790 789 788 788 787 786 784 781
790 791 791 791 793 797 798 796 797 799 799 800 802 803 804 806 808 808 809 811 813 814 816 817 816 817 818 819 819 818 817 818 820 821 821 822 822 822 822 821 820 820 820 820 821 822 821 821 821 821 821 820 820 820 820 819 818 818 817 816 816 815 814 813 812 811 809 808 807 806 804 802 799 797 795 794 793 791 789 787 787 786 786 785 784 784 783
789 791 791 789 791 797 799 796 797 798 798 799 801 802 804 807 808 808 809 810 812 813 816 817 817 818 818 819 819 819 818 819 820 821 822 823 823 822 822 821 820 820 821 822 822 821 821 821 821 821 821 821 820 820 819 818 818 818 817 816 815 814 813 812 811 810 809 808 807 805 804 802 799 797 794 791 790 789 787 786 784 783 783 782 782 782 782
789 790 790 789 791 796 798 797 798 799 799 800 802 803 804 806 807 809 811 812 813 814 815 816 818 819 820 820 820 820 821 821 821 822 824 823 822 822 821 821 821 822 822 822 822 822 821 822 822 821 821 820 819 819 818 818 818 817 816 816 815 814 813 812 811 810 809 807 806 805 803 801 799 797 795 792 789 787 786 785 783 782 780 779 780 780 779
789 790 790 791 794 797 798 799 800 801 802 803 804 805 806 808 809 810 812 813 815 816 816 816 818 819 820 821 821 822 822 822 823 824 824 823 822 822 822 822 823 823 823 823 822 822 822 822 821 821 820 819 819 819 818 818 817 816 815 815 814 813 812 811 810 809 808 806 805 803 802 800 799 797 795 793 790 788 786 784 782 781 779 778 778 778 777
790 791 790 792 795 797 798 799 800 802 804 804 805 806 809 811 812 812 813 815 816 817 817 817 818 819 820 821 822 822 823 824 824 824 823 823 823 823 823 823 824 824 824 823 822 822 822 821 820 819 819 819 818 818 817 816 816 815 814 813 812 811 810 809 808 807 805 804 803 802 800 799 798 796 795 793 791 789 787 785 782 781 779 778 777 777 777
789 791 791 793 795 796 798 800 802 804 805 805 806 807 808 811 813 813 814 815 816 817 817 817 817 819 820 820 821 823 823 824 824 824 823 824 824 824 824 825 824 824 823 823 822 821 821 820 819 819 818 818 817 816 816 815 815 814 813 812 811 810 808 807 806 804 803 802 801 800 799 798 796 795 794 793 792 790 788 786 784 782 780 778 776 776 776
791 792 793 795 796 798 800 801 802 804 804 805 806 807 807 809 812 812 813 814 815 816 816 815 816 819 820 820 822 823 823 824 824 824 824 825 825 825 825 825 824 824 823 822 821 820 820 820 819 819 818 817 816 815 815 814 813 813 812 810 809 808 807 806 804 803 801 800 799 798 797 796 795 794 793 792 791 790 788 787 785 783 781 779 777 775 775
794 795 797 797 798 799 800 801 802 804 804 805 807 807 807 809 811 812 812 813 812 813 814 814 815 818 819 821 822 823 823 824 824 824 825 825 825 826 825 825 824 823 822 821 821 820 820 820 819 818 817 816 816 815 815 814 813 811 810 809 808 807 806 804 803 801 800 798 797 796 795 794 794 793 791 791 790 789 788 786 785 783 781 780 779 777 775
795 797 798 799 799 800 801 801 802 803 804 804 805 806 807 808 810 811 811 811 810 811 813 814 815 817 818 820 822 822 823 824 824 825 825 825 825 825 825 825 824 822 821 821 820 820 820 819 818 817 817 816 815 815 814 813 811 810 809 808 807 806 805 803 802 800 799 797 796 795 794 793 792 791 790 789 789 788 787 785 784 782 781 780 779 778 775
796 798 799 800 801 801 800 800 801 802 803 803 805 806 807 808 810 811 811 810 811 812 814 815 815 816 818 820 821 822 823 824 824 825 825 824 824 824 824 824 823 822 821 821 820 819 819 818 817 816 816 815 814 814 813 812 810 809 808 807 806 805 804 802 800 799 798 797 796 795 793 792 791 790 789 788 787 786 785 784 783 781 780 778 777 776 775
797 799 801 802 802 801 800 800 800 802 802 803 804 806 807 808 809 810 811 811 812 813 814 814 815 817 818 820 821 823 824 824 824 824 824 824 824 823 823 823 822 822 821 821 819 819 818 817 816 816 815 815 814 813 812 810 809 808 808 807 806 804 802 801 800 799 797 796 795 794 792 791 790 789 788 786 785 784 783 782 781 780 778 776 775 775 774
798 799 800 801 802 801 800 800 800 801 801 802 804 806 808 808 809 810 811 812 812 813 813 815 816 818 820 821 821 823 823 823 823 823 823 823 823 822 822 821 821 820 820 819 818 817 816 816 815 815 814 814 813 812 811 810 808 808 807 806 805 804 802 800 799 798 796 795 794 793 791 790 789 788 786 784 783 782 781 780 779 778 776 774 774 774 774
797 798 798 800 802 801 800 800 800 800 800 801 803 806 807 807 808 809 811 812 812 813 814 816 818 819 820 821 821 822 822 822 822 822 822 822 822 821 821 820 819 819 818 818 817 816 816 816 815 814 814 813 813 812 811 809 808 808 807 806 805 804 802 800 799 798 796 795 793 792 791 789 788 786 784 782 780 779 778 776 776 777 776 774 774 774 774
795 797 798 799 800 800 801 801 801 801 801 801 802 805 806 806 807 809 811 812 812 813 814 815 817 818 819 820 820 821 821 822 821 821 821 821 821 820 820 819 819 818 817 816 816 816 816 815 815 814 813 812 812 811 810 809 808 807 806 806 805 804 802 801 799 798 796 795 793 792 790 789 787 785 783 781 780 778 777 775 775 777 777 776 776 776 776
795 797 798 799 799 800 801 801 802 802 803 802 803 804 805 805 806 808 810 811 810 811 812 815 817 818 818 819 819 820 820 820 820 821 820 820 820 820 819 818 817 817 816 815 815 815 815 815 814 813 812 811 811 811 810 809 808 807 806 805 805 803 802 801 800 798 797 796 794 792 791 789 787 785 784 783 781 780 778 777 777 778 778 779 779 779 779
796 797 798 798 799 801 802 802 803 803 803 803 803 804 806 806 807 808 809 810 809 810 812 814 816 816 817 818 818 819 819 819 819 819 819 819 819 818 818 817 816 816 815 815 815 814 815 814 813 812 811 811 811 810 809 808 808 807 806 805 805 804 803 801 800 799 798 796 795 793 792 790 788 786 785 785 784 782 782 781 781 781 781 782 782 782 782
797 798 799 800 800 801 802 802 803 803 802 802 803 805 806 807 808 808 808 808 809 810 812 813 815 815 816 817 817 817 817 817 817 817 818 818 817 817 816 816 815 815 815 815 814 814 814 814 812 811 811 811 811 810 809 808 807 807 806 805 805 804 803 802 801 800 799 798 796 795 793 792 790 788 787 787 786 785 785 785 784 784 784 785 785 785 784
798 799 800 801 801 801 802 803 803 803 802 802 804 805 807 807 807 808 808 807 808 809 810 811 812 813 814 815 815 815 815 815 815 816 816 816 816 815 814 814 814 814 814 814 814 814 813 813 812 811 811 811 811 810 809 808 807 807 806 806 805 805 804 803 802 801 800 799 798 796 795 795 793 791 790 790 789 788 788 788 788 788 788 788 788 788 788
798 799 801 801 801 801 802 802 803 803 803 803 804 805 806 807 807 807 807 807 807 808 809 810 810 810 811 811 811 811 811 813 814 814 814 814 814 814 813 812 813 813 813 813 813 813 812 812 812 811 811 811 810 810 809 808 807 807 806 806 806 806 805 804 804 803 802 800 799 799 798 797 796 794 793 792 792 791 791 791 791 791 791 791 791 791 791
799 800 801 801 801 802 802 802 802 802 803 803 804 804 805 805 806 806 806 806 806 807 808 809 809 809 809 809 809 809 810 811 812 813 813 813 813 812 811 811 811 812 812 812 812 812 811 811 812 811 811 810 810 809 809 808 807 806 806 806 806 806 806 805 805 804 803 802 801 801 800 799 798 797 796 795 795 795 794 794 794 794 794 794 793 793 793
799 800 801 801 802 802 802 802 803 803 803 803 803 804 804 804 805 805 806 806 806 806 807 807 808 808 809 809 809 809 810 810 811 811 812 812 812 811 810 810 811 811 811 811 811 811 811 811 811 811 811 810 810 809 808 807 807 806 806 807 807 807 807 806 806 805 805 804 803 803 802 801 801 800 799 798 798 797 797 797 797 797 797 796 796 796 796
800 801 800 800 800 801 801 801 802 802 803 803 803 803 804 804 804 805 805 805 805 806 806 806 807 808 808 809 809 809 809 809 809 809 810 810 810 810 810 810 810 810 810 810 810 810 810 810 810 811 810 810 809 809 808 807 806 807 807 807 807 807 807 807 807 806 806 806 805 805 804 804 803 802 802 801 800 800 800 800 800 800 799 799 799 799 799
801 802 801 801 801 801 801 799 799 800 801 801 801 802 803 803 803 804 804 804 804 805 805 806 806 806 807 807 808 808 807 806 807 807 807 807 808 809 810 810 810 810 810 810 810 810 810 810 810 810 810 809 809 808 807 807 807 807 807 807 807 807 807 808 808 807 807 807 807 807 806 806 805 805 804 804 804 803 803 803 803 803 803 803 803 802 803
798 799 801 801 802 802 801 799 798 800 801 800 799 800 801 802 802 803 803 803 803 803 804 805 805 805 806 806 806 806 806 806 806 806 806 805 806 808 810 810 810 809 809 809 810 810 809 809 809 809 809 809 809 808 807 806 806 807 807 807 807 807 807 808 808 808 808 808 808 808 808 808 808 807 807 807 807 806 806 806 806 806 806 806 806 806 806
795 797 798 799 799 800 801 800 799 800 800 800 799 799 800 800 801 802 801 802 802 802 803 804 804 805 805 805 805 806 806 806 806 806 806 806 807 808 809 809 809 809 809 809 810 809 809 809 809 809 809 809 809 808 807 807 807 807 807 807 807 807 808 808 808 808 809 809 809 809 809 809 809 809 809 809 809 809 809 809 809 809 809 810 810 810 810
794 795 796 797 797 798 798 799 799 798 798 798 799 799 799 799 800 800 800 800 801 801 801 802 802 803 804 804 804 805 805 804 804 805 806 806 806 807 808 808 808 808 808 809 809 809 808 808 808 808 809 809 809 809 808 808 808 808 808 808 808 808 808 808 808 809 809 809 809 810 810 810 811 811 811 811 811 811 811 811 811 812 812 812 813 813 813
793 793 793 794 795 795 796 797 797 797 797 797 798 799 799 799 799 799 799 799 799 799 800 800 800 801 802 803 804 804 804 804 803 804 805 805 806 806 807 807 807 807 808 808 808 808 808 808 808 808 809 809 809 809 809 809 809 809 809 809 809 808 808 808 809 809 810 810 810 811 811 811 812 812 812 812 812 813 813 813 813 813 814 814 815 815 816
793 793 792 792 793 794 795 795 795 795 795 796 796 797 798 798 798 798 798 798 798 798 798 798 799 799 800 801 802 803 803 803 803 803 804 805 805 806 806 806 807 807 807 808 808 808 808 808 808 809 809 809 809 809 810 810 810 810 810 810 809 809 809 809 809 810 811 811 811 812 812 812 812 813 813 813 814 814 814 814 814 814 815 815 816 816 817
791 792 792 791 791 792 792 793 793 793 794 794 794 795 796 797 797 797 797 797 797 797 797 797 797 798 798 799 801 802 802 803 803 804 804 805 805 805 805 806 806 806 807 807 808 808 808 808 808 809 809 809 809 810 810 810 810 810 810 810 810 810 810 810 811 811 811 812 812 812 812 813 813 813 813 814 814 814 814 815 815 815 816 816 817 817 818
790 791 791 791 789 789 789 790 790 790 791 792 793 793 794 794 795 795 795 796 798 798 797 796 796 796 796 796 798 799 800 801 802 803 804 804 805 805 805 805 805 806 806 807 807 808 808 808 808 808 809 809 809 809 810 810 810 810 811 811 811 811 811 811 811 811 812 812 812 812 813 813 813 814 814 814 814 815 815 815 816 816 816 817 817 818 818
788 789 789 788 787 787 788 788 788 789 790 790 791 791 792 792 793 793 794 795 796 797 796 795 794 794 795 795 795 796 798 799 801 802 803 803 804 804 805 804 805 805 805 806 807 808 808 807 808 808 809 809 809 809 810 810 811 811 811 811 811 811 812 812 812 812 812 812 813 813 813 813 814 814 814 814 815 815 815 816 816 816 816 817 817 818 818
Wind_Speed
6 5 6 5 3 1 6 9 10 12 15 15 12 8 5 2 2 3 8 13 12 10 11 11 10 10 9 8 8 9 10 10 10 11 12 13 13 13 13 12 13 13 12 9 9 13 15 15 15 14 13 12 12 12 12 11 9 9 9 9 10 10 9 9 8 7 8 8 9 10 11 11 10 11 12 12 12 11 10 10 10 9 9 9 9 9 9
8 7 6 6 7 7 7 5 6 7 10 11 10 11 11 5 10 11 12 15 13 9 11 12 11 10 9 9 7 8 9 9 10 12 12 12 13 13 13 13 13 13 13 13 15 16 15 15 15 14 13 13 12 12 12 10 9 9 9 10 11 10 9 8 7 6 6 6 7 8 9 9 9 10 10 9 10 9 7 8 9 10 11 11 10 10 10
6 7 5 6 7 8 9 9 9 6 6 7 5 6 9 6 10 13 11 12 10 8 9 11 11 9 9 10 9 8 7 7 9 11 11 11 12 12 13 14 14 15 15 16 18 20 20 19 19 17 14 12 12 12 12 12 11 10 10 10 10 9 9 7 6 6 5 5 6 7 7 6 7 8 8 8 9 8 7 9 11 11 10 10 10 11 10
4 5 6 5 5 5 8 9 10 10 6 3 5 6 4 2 6 11 10 6 6 7 9 10 10 10 10 11 11 9 7 7 10 12 12 12 12 12 13 15 17 16 16 17 20 21 22 22 23 23 21 16 15 13 10 11 11 9 9 9 8 8 7 6 6 6 4 4 6 5 4 4 5 6 7 7 8 8 9 12 13 12 10 10 11 12 12
3 5 7 6 4 4 5 4 5 9 7 5 4 5 7 4 5 6 5 6 8 9 9 10 11 11 11 11 10 9 8 10 13 15 15 15 14 14 15 16 15 14 15 16 19 20 21 22 22 24 25 23 18 15 14 12 9 8 9 10 9 8 8 6 5 5 4 4 5 5 4 4 3 4 5 6 6 7 8 9 12 13 13 13 14 14 16
2 3 3 5 6 3 2 3 7 7 3 8 6 5 7 6 5 4 5 8 11 11 11 12 12 12 12 13 12 12 11 11 14 16 16 16 15 15 14 14 14 14 15 17 19 21 22 23 23 23 24 24 23 21 21 21 18 13 11 12 12 12 11 10 9 8 7 6 5 4 3 3 3 3 5 5 6 6 7 8 11 14 15 15 16 17 18
1 5 5 3 5 2 2 4 8 8 3 4 5 6 7 7 10 10 10 11 12 12 13 14 14 14 15 15 15 14 12 11 12 14 14 14 12 11 10 10 11 14 16 17 18 20 21 21 22 22 23 22 22 22 22 22 23 22 17 15 16 17 17 16 15 14 12 10 9 7 4 2 1 3 4 6 7 8 8 10 12 14 15 16 17 18 19
2 1 1 1 1 2 3 6 9 9 6 2 4 6 5 6 8 9 10 11 11 12 14 15 15 15 15 14 13 13 12 12 11 12 11 10 9 8 7 7 8 11 13 15 15 16 17 19 20 20 22 22 20 21 23 22 22 23 21 19 19 20 21 20 19 18 17 15 13 11 9 7 5 5 4 5 6 7 8 10 12 14 15 16 16 17 19
1 2 2 1 1 2 3 6 8 7 5 3 2 2 3 3 5 7 9 12 13 13 15 16 16 15 13 11 9 9 10 11 11 10 9 9 10 9 8 9 9 9 8 8 10 12 13 16 17 16 17 19 18 19 19 19 19 20 18 17 18 18 18 19 19 18 18 18 17 15 13 11 10 9 7 6 6 6 7 9 11 13 14 15 16 17 19
3 3 2 1 1 0 2 6 9 8 6 7 6 1 3 4 4 7 11 13 13 13 14 15 14 11 9 7 5 7 10 10 11 11 11 11 12 10 8 8 8 7 7 5 5 7 8 10 12 12 11 12 13 13 13 12 13 14 13 13 14 14 15 16 16 16 16 16 17 16 15 14 14 12 11 10 10 9 8 9 10 12 13 14 16 17 19
3 3 2 1 0 1 2 4 7 9 9 9 6 1 2 3 3 8 12 13 12 11 12 12 10 7 6 6 6 8 10 11 11 11 11 12 12 11 10 9 8 7 7 8 6 4 4 5 7 8 7 7 7 8 10 11 10 10 10 11 11 11 12 12 13 14 14 14 14 14 14 14 14 14 13 12 12 13 12 12 12 12 13 14 16 17 18
3 3 2 1 2 3 5 6 5 7 9 8 5 2 2 1 4 9 11 11 11 10 11 10 6 4 5 7 8 10 10 11 11 10 10 11 11 10 8 6 4 5 6 6 6 4 4 4 4 5 5 6 7 7 8 9 9 10 11 12 11 11 10 10 11 13 14 15 15 14 13 14 14 14 14 14 14 15 15 16 15 15 15 15 15 15 16
3 3 1 2 3 2 7 8 6 5 7 5 1 2 1 3 8 10 9 10 10 9 8 6 4 5 8 10 10 10 10 9 9 9 9 9 8 9 8 5 5 5 4 4 4 4 4 4 5 5 5 6 6 7 7 8 9 11 12 12 12 12 11 11 11 13 15 16 16 15 15 16 16 16 16 16 16 17 17 17 17 18 18 18 18 17 15
3 3 1 3 4 1 7 9 6 6 4 1 4 4 4 5 9 11 11 13 12 11 11 9 8 9 11 11 11 10 8 8 7 8 8 7 7 8 7 6 6 6 4 4 4 4 4 4 4 5 6 6 6 7 8 8 9 11 12 13 13 13 13 13 13 14 15 16 17 18 18 18 19 19 19 18 18 18 19 19 19 20 20 19 20 19 16
3 2 2 2 4 4 8 8 5 6 4 5 6 6 8 10 9 10 12 12 10 11 12 11 10 11 11 10 10 8 7 7 6 6 6 6 6 6 5 6 7 6 4 4 5 4 4 4 4 5 5 5 5 6 7 6 8 9 10 10 11 11 12 13 14 15 16 17 18 18 19 19 20 21 21 20 20 20 20 21 21 22 22 21 21 20 17
3 2 4 2 3 5 7 6 4 5 7 7 7 7 8 9 9 10 10 9 8 10 11 10 10 10 9 8 8 7 6 5 5 5 5 5 5 5 5 6 7 6 5 4 4 4 4 4 4 4 3 3 4 5 5 6 7 8 9 9 10 11 12 12 13 14 15 16 18 19 20 21 21 22 22 21 22 21 22 22 22 22 22 21 20 20 18
5 5 5 4 4 5 7 7 6 5 8 11 11 10 9 7 8 8 8 9 10 9 9 9 8 7 7 7 6 4 5 5 4 4 5 5 4 4 4 5 6 6 4 3 3 3 4 4 3 2 2 3 4 6 6 8 9 9 10 11 12 13 13 13 14 15 15 16 16 17 18 20 21 22 22 21 21 22 21 22 22 22 22 21 20 20 17
7 7 6 6 7 7 8 9 8 7 8 10 11 11 10 9 9 9 8 9 10 10 7 7 7 6 5 5 4 3 4 4 3 3 4 5 4 4 4 5 5 5 4 2 2 2 2 2 3 3 4 5 7 8 8 10 11 12 13 14 14 15 15 15 16 16 16 17 16 16 17 18 19 20 21 21 22 22 21 21 22 22 22 22 21 20 17
2 4 6 7 7 7 7 7 8 8 9 10 10 9 9 8 9 10 9 9 9 7 6 6 5 4 3 3 2 3 3 3 4 4 5 5 4 4 4 4 4 4 4 2 2 2 3 4 4 5 7 7 9 10 11 12 13 14 15 15 16 16 16 17 17 18 18 19 19 19 19 19 19 19 19 20 21 22 21 21 22 22 23 22 21 21 19
2 5 8 7 7 7 6 6 6 7 8 9 9 8 9 8 9 8 7 7 6 5 4 4 3 4 4 3 1 1 2 2 3 5 5 5 5 4 4 4 4 3 2 2 3 4 5 6 7 7 7 8 9 11 12 13 14 15 15 15 15 16 16 16 17 17 17 18 19 20 19 20 20 20 19 19 20 21 22 20 17 17 18 18 19 20 18
5 7 8 8 7 7 7 7 7 6 6 7 8 8 8 9 8 8 8 7 6 6 5 3 3 4 5 4 2 1 1 3 4 5 5 5 4 4 4 3 2 3 1 3 5 5 5 6 6 7 8 9 10 11 12 13 14 14 15 14 14 14 14 15 15 15 16 17 17 18 20 21 22 22 22 23 22 22 24 24 22 22 22 21 22 18 12
4 5 6 5 4 5 6 7 8 7 6 7 8 7 8 8 7 6 6 6 7 7 5 3 3 3 4 4 3 2 2 4 4 4 4 5 5 5 4 3 3 2 3 5 5 4 5 6 6 8 9 10 11 12 13 13 14 14 14 14 13 13 13 13 14 15 16 17 17 18 19 20 22 23 24 25 25 24 24 25 27 28 28 27 24 19 12
5 6 4 1 3 6 7 6 7 7 5 5 6 6 6 6 4 3 3 3 4 5 5 4 4 4 4 5 4 3 4 4 4 5 7 6 5 5 4 4 3 4 5 4 3 4 5 6 7 9 10 11 12 12 12 13 13 13 13 12 12 12 13 14 15 16 17 17 17 18 19 19 20 22 23 24 25 25 24 24 26 28 29 27 24 20 16
6 6 3 3 4 7 7 5 6 5 4 4 5 4 3 3 4 4 3 3 2 2 3 4 5 5 5 4 4 4 4 4 6 7 7 5 4 4 4 4 4 4 3 3 4 4 6 7 8 9 10 11 12 12 12 13 13 12 12 12 12 13 14 15 16 16 16 16 17 18 18 19 19 20 20 21 23 22 23 24 24 25 26 25 22 18 16
6 5 4 6 7 7 6 5 5 4 4 4 4 5 6 7 6 4 3 3 3 3 3 3 5 5 4 4 4 4 4 5 7 7 6 5 4 4 4 3 4 4 4 4 5 5 6 8 9 10 10 11 13 13 13 13 12 11 12 12 13 14 15 15 15 15 15 16 16 17 17 18 18 18 18 19 19 20 22 24 24 24 24 23 20 16 14
6 4 4 6 7 6 4 4 4 4 4 3 3 5 9 9 5 2 3 4 3 3 2 2 4 5 4 4 5 5 5 5 6 5 5 4 5 4 4 4 4 4 4 5 5 5 7 8 9 10 12 13 14 14 14 13 12 12 12 13 13 14 15 16 17 18 18 17 17 17 17 17 18 18 18 18 18 19 20 21 22 22 22 22 19 16 14
4 3 2 3 4 4 4 4 5 4 2 3 3 3 7 8 4 2 3 3 3 2 1 1 4 5 5 5 5 5 4 5 5 5 5 5 5 4 4 4 4 5 5 6 6 5 7 9 10 11 12 13 14 14 13 12 12 12 12 13 14 15 16 18 19 20 20 18 17 17 17 17 16 16 16 17 18 18 18 19 20 21 22 22 19 16 15
2 3 2 1 1 4 5 4 5 2 1 3 2 1 2 6 4 1 1 1 2 2 1 1 3 5 5 5 5 5 5 5 6 5 5 5 4 4 4 5 5 6 6 5 5 7 9 10 10 10 12 13 14 14 12 12 12 13 14 15 15 15 17 18 18 17 17 16 15 16 16 17 17 17 17 18 18 18 18 19 19 19 21 22 19 15 14
2 3 2 2 3 3 2 2 2 1 1 2 1 3 1 3 2 2 2 3 3 2 2 3 3 4 4 4 5 5 5 5 4 4 5 5 4 4 5 7 8 8 7 4 7 10 10 9 8 9 12 14 14 13 12 12 13 14 14 14 15 15 16 17 17 16 15 15 14 14 15 17 17 17 17 17 17 17 18 18 19 20 22 22 17 12 11
2 2 1 1 1 1 1 2 2 1 2 2 2 3 2 2 1 3 3 2 2 2 3 4 3 3 3 3 4 5 5 5 4 4 4 4 3 4 6 8 9 8 6 7 10 10 9 8 10 10 11 13 14 13 13 13 14 13 12 13 13 14 15 16 16 15 15 15 14 14 14 15 15 15 15 16 17 17 17 18 20 22 23 22 17 11 10
3 3 1 0 1 2 3 2 1 1 3 2 1 3 3 0 1 4 5 3 4 4 3 5 5 3 2 3 3 4 4 3 3 3 4 3 3 4 6 6 6 7 7 9 10 9 9 11 12 10 9 13 14 13 13 14 14 12 11 12 13 13 14 16 16 14 13 13 13 14 13 13 14 14 15 16 17 16 16 17 19 20 21 22 20 15 12
4 4 3 2 3 3 4 3 1 2 3 3 2 2 4 3 3 3 3 3 4 4 4 4 4 4 5 5 4 3 3 4 4 4 3 3 4 5 6 6 5 7 9 10 9 9 12 14 12 9 9 12 13 12 13 14 12 10 10 11 13 13 15 15 15 14 13 12 12 13 14 14 14 15 15 16 17 16 16 16 18 20 21 21 17 13 12
4 5 4 3 3 4 4 3 2 3 4 3 1 2 4 5 4 3 3 4 4 4 4 4 4 6 6 4 3 1 3 6 6 4 4 4 5 5 6 7 7 7 8 8 8 10 12 11 9 8 9 11 12 11 12 13 11 9 10 11 12 14 14 14 14 14 14 13 12 13 13 14 14 16 17 17 18 18 18 18 18 17 16 11 6 7 9
5 5 2 1 2 4 4 3 3 4 4 3 2 3 5 6 4 2 2 3 3 3 3 2 5 6 4 3 3 1 3 5 4 3 3 5 7 6 7 7 7 7 8 8 9 10 8 7 8 10 10 11 11 10 10 12 12 10 10 11 12 13 14 14 15 15 14 13 12 11 12 14 16 17 18 19 18 16 15 15 14 11 6 1 5 6 6
5 4 3 3 3 3 4 5 4 4 5 4 2 4 5 6 3 3 3 1 4 5 2 5 7 5 4 5 5 4 4 4 5 6 7 7 7 7 8 8 7 7 8 9 8 6 5 6 9 10 9 10 10 8 9 12 13 10 9 10 11 12 13 14 15 13 12 13 13 13 14 15 16 15 15 13 11 9 8 6 4 2 2 5 7 8 10
4 3 4 5 4 3 4 5 4 3 4 4 3 4 5 5 4 3 2 3 5 2 6 9 7 6 6 8 8 7 6 6 7 7 7 7 7 7 8 8 7 6 7 7 5 4 5 8 9 8 8 10 9 6 9 13 14 10 8 9 10 10 11 13 15 14 13 14 14 14 16 18 17 14 13 12 12 13 15 15 12 8 8 8 9 10 12
4 5 5 4 3 3 4 5 3 2 4 4 4 5 5 4 3 3 4 6 4 3 9 9 7 6 7 8 9 9 8 9 8 7 7 7 8 9 9 7 6 7 7 5 5 5 6 8 8 7 8 9 8 7 9 13 13 10 8 9 10 10 10 11 12 13 14 15 15 15 16 19 20 16 12 13 16 16 15 15 14 12 10 9 9 9 11
4 4 4 3 3 3 3 3 2 4 5 4 3 4 5 6 5 5 6 6 4 1 5 6 6 6 6 7 9 11 12 11 10 10 10 9 9 10 9 6 6 6 4 3 5 5 6 7 7 7 8 9 9 9 10 12 12 10 9 10 10 10 10 10 10 11 11 13 15 14 15 18 20 18 14 14 18 20 18 16 14 13 13 13 13 13 14
5 4 2 3 4 3 2 2 3 4 4 3 3 4 6 7 6 5 6 6 5 3 4 4 5 7 8 8 10 12 13 12 11 10 9 8 8 9 9 9 7 5 3 3 4 4 4 5 7 8 9 9 9 9 9 11 11 9 9 11 11 10 9 9 10 9 10 11 12 13 14 15 18 18 15 14 16 19 20 18 16 15 15 15 17 17 17
4 3 3 4 4 3 2 2 3 3 2 3 4 5 7 7 7 6 7 8 6 3 3 3 5 6 6 7 9 10 10 10 9 8 6 6 7 8 9 9 7 5 4 4 3 2 3 5 6 7 8 7 7 8 9 11 11 9 9 11 12 11 10 10 10 10 10 10 11 11 12 13 15 17 16 15 15 16 17 17 16 15 14 13 14 14 15
4 4 4 4 4 4 4 3 3 3 3 4 4 5 6 6 6 6 7 7 5 2 2 4 5 5 4 4 4 3 4 8 8 6 6 5 7 8 8 3 5 5 3 5 2 1 3 3 3 5 7 5 4 6 9 9 9 8 8 10 11 11 11 12 12 11 11 11 11 11 11 11 12 14 15 16 15 14 14 14 14 13 13 13 14 16 18
6 7 7 6 5 5 4 3 3 4 4 4 5 5 6 6 6 6 6 6 5 4 4 4 4 3 4 5 4 3 2 4 6 7 8 7 7 8 5 3 6 2 5 5 2 2 4 2 2 5 6 3 3 6 8 8 8 7 8 9 10 10 10 11 11 12 12 12 11 12 12 12 12 13 14 16 16 15 14 14 13 14 14 15 17 19 21
6 7 8 8 7 7 6 6 6 6 6 6 6 6 7 7 7 7 7 6 6 5 5 4 4 4 4 4 4 4 5 5 5 6 8 8 7 6 3 2 2 3 5 3 1 2 2 2 2 6 4 1 3 7 8 7 7 7 7 8 8 8 9 10 10 11 11 12 12 13 13 14 14 14 14 15 15 16 16 15 15 15 17 18 20 21 23
3 8 10 8 6 7 8 9 8 6 7 8 7 7 8 8 8 8 8 8 7 6 6 5 4 4 4 4 4 4 5 5 4 5 7 7 8 7 3 1 1 4 4 0 1 2 1 2 5 6 1 1 4 7 6 5 5 5 6 7 8 8 8 8 9 9 10 10 11 12 13 14 15 15 15 15 15 15 16 16 16 16 16 17 20 22 24
7 9 11 9 6 7 10 9 5 4 6 7 5 4 6 8 8 9 9 8 8 7 6 5 5 5 4 4 4 4 4 4 2 3 4 2 5 7 5 3 1 3 2 2 3 2 3 5 6 4 1 2 4 8 8 6 4 4 5 6 7 7 7 8 8 9 9 9 9 10 11 12 13 15 15 15 16 16 16 16 17 17 17 18 20 22 23
5 8 11 11 8 6 10 12 9 6 7 8 6 6 6 7 7 9 10 9 9 8 7 6 6 6 5 5 5 4 4 4 4 3 3 1 4 5 5 4 3 2 1 3 3 1 4 6 4 0 3 2 4 8 10 9 7 6 7 6 6 6 6 7 8 9 9 9 9 10 10 11 12 13 14 14 15 16 17 17 18 18 19 19 20 21 22
6 5 6 7 8 9 10 12 11 9 8 7 7 7 7 6 6 8 9 9 9 9 8 7 7 7 6 5 5 5 5 5 5 5 5 3 2 2 2 1 0 1 3 4 3 1 4 4 1 4 5 4 4 6 7 7 7 8 9 9 8 7 6 7 7 7 9 10 10 10 11 10 10 11 12 12 13 14 15 15 16 17 17 17 18 19 20
8 8 7 7 8 7 7 9 11 10 9 7 7 8 7 6 6 8 9 10 10 10 9 8 8 8 7 6 6 5 5 5 4 4 7 6 4 3 2 1 2 3 3 2 0 4 7 5 5 8 7 5 5 5 5 4 5 6 6 7 8 9 8 8 7 6 6 6 7 8 9 9 9 9 10 10 11 12 12 13 13 14 14 15 15 16 16
6 9 8 7 7 7 7 8 9 10 9 9 9 9 8 7 8 9 10 10 10 10 10 9 9 8 8 8 7 6 6 6 4 2 5 7 6 5 3 3 2 2 3 2 1 4 6 5 7 8 7 6 6 5 5 5 5 5 5 5 5 6 6 8 8 7 5 5 5 6 6 7 8 8 8 9 9 9 10 11 11 12 13 13 13 13 13
5 7 9 8 8 9 9 9 9 9 9 9 9 9 7 6 7 8 7 8 9 10 10 10 10 10 10 10 9 8 8 8 6 4 4 5 6 5 4 3 2 1 2 3 3 2 3 3 6 7 6 6 4 4 4 5 4 4 5 5 5 4 5 6 7 6 5 5 5 5 5 6 6 7 8 8 8 9 9 10 11 11 10 11 11 11 11
4 6 10 12 11 9 8 9 9 8 7 7 8 9 9 7 7 7 6 6 10 13 12 10 10 10 9 10 11 10 9 9 8 8 7 6 6 7 7 5 4 2 2 4 4 2 1 1 3 4 3 4 3 3 4 4 4 4 4 5 4 5 5 5 4 4 4 4 5 6 6 6 6 7 7 7 8 8 9 9 9 9 9 9 9 9 9
7 9 12 13 10 7 8 9 8 7 7 8 8 8 9 9 8 8 7 7 10 14 15 11 9 9 10 10 10 11 11 11 11 10 9 8 7 8 9 8 6 3 3 4 4 3 3 4 4 3 4 4 3 3 4 4 3 3 4 4 4 4 5 4 5 5 4 4 5 6 6 6 6 6 7 7 8 8 8 8 8 7 8 8 7 7 8
Wind_Direction
217 181 162 149 157 285 332 339 347 1 12 7 347 322 306 267 145 136 141 130 118 119 120 111 105 104 104 106 108 111 114 118 120 113 106 102 94 88 88 85 79 70 61 59 75 92 101 107 110 110 105 97 86 76 72 68 66 64 63 71 77 77 84 97 109 123 136 147 156 162 168 176 183 187 190 194 198 202 199 193 194 200 206 211 217 224 230
237 217 193 189 203 217 230 263 312 352 26 26 13 1 356 40 113 120 125 114 103 112 117 107 103 105 106 105 102 106 114 118 116 108 103 101 96 93 92 86 78 69 57 48 49 56 66 78 84 89 98 103 102 101 94 78 70 74 70 69 76 79 80 86 95 107 123 141 153 157 165 175 183 186 190 192 193 199 204 200 198 203 210 217 218 220 229
234 220 206 212 217 216 215 221 247 284 350 16 46 44 0 13 100 103 102 100 100 113 112 102 102 104 106 107 101 94 99 105 106 102 100 100 97 95 92 82 67 53 43 37 37 38 39 44 47 46 56 76 82 91 103 95 79 77 76 70 70 71 74 82 88 90 97 120 138 147 157 164 169 175 185 194 193 195 208 212 209 206 210 222 226 222 225
231 213 206 212 212 220 228 227 237 247 257 354 48 81 55 25 108 103 94 97 111 119 114 109 108 105 104 104 98 86 79 88 92 87 82 82 83 80 72 62 51 42 37 33 32 31 30 32 34 30 28 36 45 50 70 86 86 88 89 89 90 85 77 76 84 85 78 93 114 125 137 149 157 166 181 197 201 203 212 219 222 221 218 228 235 232 229
236 223 214 211 213 232 234 239 281 266 218 156 93 83 93 118 152 136 125 136 136 135 136 128 117 110 103 95 86 76 68 72 75 71 65 63 62 59 53 49 45 42 39 34 30 30 31 29 30 28 22 18 23 31 34 41 58 86 92 85 81 81 79 66 64 78 80 90 107 114 127 146 161 173 185 204 216 218 222 230 238 239 234 234 239 238 235
250 318 292 218 207 227 262 328 343 334 181 162 157 111 91 98 119 109 104 122 133 146 148 130 114 102 89 77 69 63 57 61 66 64 60 56 52 47 40 38 38 36 36 34 28 27 27 24 24 26 22 15 16 25 24 19 22 39 66 72 55 44 48 43 32 35 42 47 59 74 113 151 182 207 210 222 228 221 224 236 243 245 242 239 239 239 238
34 4 346 223 202 229 323 337 356 12 47 169 162 121 101 105 113 109 111 126 140 147 132 112 100 92 83 75 70 65 61 64 68 68 65 62 58 54 46 38 31 27 29 30 28 24 22 22 22 22 20 15 15 20 19 16 19 25 37 53 45 29 27 27 20 19 22 21 22 17 7 17 271 241 231 231 231 224 220 224 230 236 239 240 241 241 242
41 10 291 200 255 349 22 20 8 10 21 62 119 119 122 133 134 130 128 127 129 126 114 102 94 89 82 73 68 68 68 69 72 75 76 76 74 72 69 63 47 35 31 30 29 26 23 24 26 22 19 18 16 16 16 15 16 19 26 35 32 21 15 13 10 10 9 6 4 358 350 346 331 302 277 249 240 236 231 230 228 228 233 239 243 244 245
229 217 173 110 27 349 26 31 19 15 23 18 24 128 141 130 129 131 117 102 93 93 98 100 99 96 90 81 78 85 90 88 89 95 101 101 97 90 82 77 68 57 49 38 32 32 29 28 29 23 18 19 18 15 15 14 12 12 19 26 23 15 8 3 1 0 359 355 352 350 345 337 329 324 317 302 286 263 243 239 237 233 234 237 237 238 243
213 217 198 179 179 203 19 19 7 1 6 359 349 85 112 39 56 110 110 101 96 93 97 106 112 110 102 98 108 120 119 118 119 120 122 119 114 115 115 108 99 86 79 75 52 39 31 29 32 27 16 17 19 12 7 10 9 7 14 22 18 8 359 354 351 349 347 343 339 336 332 328 327 330 326 317 311 302 283 268 258 252 248 243 237 237 240
201 206 219 262 119 72 35 26 355 340 348 349 333 192 142 7 53 114 113 110 112 113 117 125 132 129 115 114 133 144 143 142 140 138 138 137 137 142 143 145 157 150 121 117 117 80 43 29 29 25 16 13 14 3 357 1 1 1 10 14 4 354 351 345 338 334 328 321 317 315 314 315 319 321 319 314 308 304 301 292 279 269 263 254 246 242 240
229 228 234 85 94 57 15 6 345 337 341 329 300 204 162 184 124 118 121 128 130 135 144 150 151 142 128 121 128 139 138 133 132 132 135 138 138 132 122 122 146 154 140 131 121 93 64 46 24 15 18 11 1 356 354 352 355 1 4 359 349 344 340 329 320 315 310 305 303 304 303 303 304 305 306 306 303 299 298 295 287 278 273 269 264 255 245
267 255 222 101 97 42 343 336 337 334 321 304 250 121 139 143 123 116 115 113 105 104 117 116 79 84 103 107 111 119 116 108 107 106 105 107 104 96 95 90 68 65 93 108 87 59 47 38 19 14 18 8 359 360 355 351 357 359 352 343 338 334 328 318 310 306 303 302 301 300 297 296 296 294 292 291 291 290 288 287 283 279 274 271 273 270 258
308 283 225 109 98 13 314 317 334 339 322 113 93 51 30 72 105 109 97 84 81 83 87 87 81 84 96 105 109 111 110 104 101 98 96 94 88 84 96 98 65 40 47 76 61 44 41 35 24 18 11 7 9 5 356 352 352 346 337 332 330 327 324 321 315 308 304 303 302 299 296 293 291 290 287 283 282 281 280 280 280 279 275 269 268 269 261
324 349 29 85 91 26 333 326 346 358 17 96 92 56 47 54 71 89 86 79 87 95 92 92 97 95 96 104 106 104 103 102 100 96 91 87 81 73 76 80 60 27 23 47 35 29 42 36 25 18 10 11 12 356 345 341 334 324 321 323 322 321 320 318 316 313 309 308 307 303 300 297 293 289 285 281 279 276 275 276 276 275 274 268 264 264 259
327 27 58 59 73 42 18 26 49 31 38 61 63 61 68 65 65 74 70 59 70 90 96 96 97 97 100 103 104 106 109 107 107 105 95 79 68 58 50 54 43 16 12 28 20 21 37 25 12 10 6 1 353 343 340 334 322 315 315 318 317 316 316 314 313 312 310 308 307 306 304 303 301 296 290 284 280 276 273 272 269 268 268 265 261 262 259
41 68 94 98 86 70 62 68 71 56 60 64 57 53 60 64 70 74 65 53 52 60 80 91 87 87 96 98 96 105 114 108 100 100 98 84 65 57 54 50 33 9 359 10 18 26 26 5 340 312 297 317 328 338 343 334 324 321 320 320 320 317 315 314 311 310 308 306 305 304 304 303 302 301 298 292 284 279 274 271 268 264 263 263 262 263 259
79 73 89 98 84 76 77 76 65 56 67 72 67 62 58 56 65 70 66 61 50 37 48 77 80 72 78 90 100 113 115 111 107 102 95 82 62 47 50 51 29 356 340 7 51 39 359 324 308 303 314 325 325 328 333 329 324 324 323 321 321 319 316 315 314 312 310 308 307 306 305 302 298 297 297 297 292 286 278 274 273 271 267 262 260 262 261
123 89 100 107 99 94 91 86 78 73 72 72 73 79 79 73 73 74 71 70 65 51 49 68 87 96 91 90 110 118 114 118 120 106 85 65 48 34 36 38 17 352 349 10 27 359 321 315 333 344 343 340 332 331 333 330 326 325 325 323 322 318 313 313 314 312 311 311 311 309 306 301 297 293 290 290 291 289 284 279 275 275 274 269 262 259 258
72 105 116 118 115 112 107 100 98 92 84 81 81 87 94 92 90 93 96 96 96 94 86 86 113 127 115 94 63 86 113 119 102 84 66 47 34 25 25 26 11 350 339 349 348 342 335 337 349 354 346 338 334 332 332 332 329 327 326 325 320 314 310 310 310 309 308 309 310 308 305 302 301 300 296 291 289 287 286 287 290 293 298 301 291 269 245
91 112 124 126 123 118 107 101 103 105 104 102 101 102 107 109 110 112 112 110 110 112 113 120 129 125 118 105 59 10 76 90 74 60 49 37 22 10 10 12 336 277 278 11 3 346 340 347 353 349 338 332 334 335 333 333 332 329 326 322 315 309 307 307 306 306 307 307 307 306 305 304 303 302 302 303 302 293 286 288 298 306 308 312 312 297 254
123 131 137 134 122 118 114 110 113 118 123 122 121 119 113 108 108 112 119 125 124 117 108 105 110 110 103 89 61 17 44 66 63 47 38 27 7 357 352 319 274 285 8 19 6 340 341 351 348 343 341 338 337 336 333 331 329 325 320 316 311 308 308 307 308 311 311 307 304 303 302 302 301 300 301 304 307 305 298 293 295 299 299 296 296 297 280
91 115 132 116 99 123 130 125 119 120 123 124 122 114 105 104 104 87 79 103 117 113 106 93 84 80 72 62 47 26 32 39 34 29 29 14 346 341 340 318 325 19 21 4 347 341 345 350 349 347 345 338 334 333 333 332 328 322 317 314 310 308 308 308 311 313 311 305 302 301 299 298 299 300 302 304 304 306 307 302 297 299 300 295 288 284 274
96 111 104 58 97 122 123 110 106 100 74 71 97 106 106 112 108 90 74 68 65 75 98 96 85 75 65 55 45 32 18 14 23 23 6 335 321 335 340 346 12 26 8 339 340 344 344 352 354 345 338 340 347 352 348 339 330 322 317 313 309 309 310 311 312 311 307 303 301 299 297 297 296 296 298 302 304 305 307 306 304 303 301 294 285 277 266
96 100 85 84 105 121 124 123 119 97 56 55 82 91 77 66 60 66 82 86 74 63 62 76 78 71 60 49 42 35 17 13 23 11 328 312 347 358 345 6 20 4 342 335 331 335 348 353 346 337 341 354 1 356 346 336 328 322 317 312 310 310 309 306 305 304 302 300 297 295 293 293 294 293 294 297 301 304 305 307 309 310 307 299 287 272 253
112 110 106 114 124 126 132 146 129 95 70 70 81 90 89 79 54 41 75 77 72 65 51 66 71 57 44 40 30 21 14 6 1 346 330 346 13 1 351 11 2 331 326 325 319 331 346 340 337 347 356 357 353 346 339 333 327 322 317 312 308 307 304 302 301 298 296 292 289 289 289 289 288 290 290 290 294 298 302 305 310 313 312 307 295 278 255
121 122 124 150 148 113 83 96 108 99 90 90 80 96 113 111 112 129 127 130 119 87 37 72 70 41 17 24 22 10 13 5 348 348 2 7 4 358 354 347 326 318 321 317 315 332 342 338 345 357 355 348 346 346 341 333 327 323 318 313 309 308 307 308 307 303 297 289 283 282 284 286 287 289 289 290 294 297 300 304 308 309 311 312 304 284 258
89 88 55 1 110 89 73 89 113 145 200 112 79 306 131 110 102 97 124 161 120 86 308 303 58 39 6 11 18 4 359 356 345 348 356 348 345 352 340 324 324 321 308 303 329 357 359 352 348 348 349 352 353 350 342 334 329 326 321 319 319 316 313 313 315 313 305 295 286 282 282 284 289 293 293 292 294 295 294 296 298 303 312 317 311 287 254
94 84 59 41 64 78 75 106 120 184 230 125 110 277 274 94 105 212 205 214 215 215 298 330 36 37 2 3 7 349 339 342 337 336 336 327 323 331 329 331 329 310 291 314 10 13 4 350 332 335 354 5 1 351 344 337 330 326 324 325 326 323 320 320 322 322 317 309 302 297 291 287 288 290 288 287 290 290 290 292 296 302 310 314 307 282 245
132 130 134 110 101 120 233 208 158 201 245 211 208 257 255 103 121 267 270 266 270 329 346 336 339 348 351 0 356 345 352 3 353 332 322 319 328 338 335 334 327 311 313 356 4 354 342 326 312 321 353 6 360 352 349 342 334 328 325 326 328 326 324 326 327 326 324 322 318 314 304 295 292 292 289 287 290 290 287 290 294 295 300 304 296 271 235
155 147 135 16 302 262 262 256 196 210 254 256 260 281 282 170 203 276 295 332 357 352 332 311 312 332 36 54 25 12 16 14 348 320 308 310 324 330 330 330 323 313 321 334 330 321 318 312 306 315 349 1 356 355 355 347 339 331 326 329 335 333 329 331 333 330 325 322 320 317 311 301 295 294 291 287 286 285 283 287 289 290 295 297 287 264 233
167 179 196 226 256 262 265 267 256 256 265 257 231 259 278 275 264 272 291 321 322 304 294 310 341 44 82 86 65 43 11 328 307 288 273 287 313 326 333 332 312 296 302 309 312 311 307 303 304 325 355 355 350 353 357 352 345 338 335 339 342 336 331 334 336 329 321 321 320 315 310 304 298 295 293 289 286 284 283 285 285 286 291 292 276 245 217
197 214 212 210 246 267 270 264 257 263 269 265 249 263 270 262 254 258 276 285 284 288 313 348 53 92 100 100 101 80 339 318 301 266 254 292 317 328 332 327 313 304 305 307 307 306 302 302 319 349 357 349 344 352 2 6 4 356 347 345 344 337 332 336 338 331 326 326 322 314 312 309 303 299 296 293 290 287 282 279 280 284 289 288 251 205 204
207 234 238 197 236 270 293 306 294 279 272 252 206 213 244 253 252 260 289 290 292 310 332 44 115 129 144 166 168 195 316 316 310 298 301 313 321 328 331 326 318 313 307 297 294 300 308 327 342 344 344 346 347 354 10 18 14 1 349 347 344 337 333 337 340 339 338 339 337 335 333 328 320 316 311 306 303 299 288 278 279 288 294 216 140 144 165
205 228 250 241 246 277 307 313 309 303 302 293 223 207 235 244 217 131 93 1 286 279 243 148 146 162 194 200 202 228 263 281 296 306 306 307 316 327 326 319 313 307 296 285 282 296 329 340 330 325 335 349 351 355 12 16 11 0 354 353 345 336 335 342 346 349 356 1 1 2 360 352 346 346 344 341 344 357 5 360 346 351 95 107 111 115 126
215 225 238 242 255 292 308 309 313 312 300 285 234 217 237 240 210 159 153 262 268 227 135 135 153 185 207 213 220 232 250 268 284 293 291 290 300 309 309 309 312 305 293 290 305 341 345 330 323 325 339 346 349 0 13 11 6 2 0 0 352 341 340 348 353 359 5 7 6 7 7 6 6 6 10 20 35 48 55 58 65 84 102 103 107 116 118
222 235 243 252 279 308 308 311 317 279 258 245 210 203 223 243 246 229 236 259 279 106 123 141 171 200 221 233 233 236 250 262 269 271 267 266 282 298 305 310 308 291 282 302 355 4 337 322 328 342 344 343 354 14 14 7 5 7 14 15 7 356 349 350 355 0 4 4 4 8 10 9 8 10 20 32 38 47 64 76 79 83 91 102 121 134 128
223 232 245 267 288 295 301 306 284 251 243 225 182 180 203 220 229 231 237 262 299 73 141 166 185 202 225 238 235 239 250 256 258 263 266 267 279 292 294 292 291 288 291 333 359 351 332 329 343 351 347 350 2 11 8 6 8 14 26 30 20 8 1 357 354 356 1 2 3 9 13 13 15 22 36 44 42 45 56 72 80 81 81 83 88 98 107
221 209 224 261 271 281 304 296 271 266 258 225 189 187 203 216 229 245 256 263 260 205 183 205 213 209 208 211 219 234 245 248 249 255 260 266 278 281 278 277 276 269 278 326 339 337 338 349 358 356 356 5 10 1 359 7 10 14 31 38 29 20 17 13 5 2 3 5 8 13 16 16 18 25 37 48 49 48 50 57 67 76 80 80 81 88 100
242 229 244 254 254 260 274 258 248 254 248 223 212 205 204 210 220 234 251 257 245 191 185 252 257 242 225 222 228 233 229 226 234 246 253 265 273 269 269 271 253 217 234 306 336 353 352 3 10 2 358 5 1 345 350 6 12 18 36 41 35 32 31 28 22 19 16 14 17 20 21 22 23 26 33 44 50 52 52 53 56 63 70 76 78 84 98
249 244 251 256 254 256 260 262 260 252 235 231 233 224 218 223 226 230 250 267 269 236 231 251 259 272 280 276 284 277 203 197 207 215 217 233 256 263 267 250 163 169 270 321 352 24 354 12 26 356 349 359 357 343 351 6 11 20 40 44 40 39 38 34 32 33 31 29 29 29 29 32 32 32 37 44 49 53 58 62 62 63 68 73 72 74 86
244 238 234 232 237 245 242 242 256 257 247 246 251 245 239 240 239 237 248 258 255 254 260 246 233 257 289 294 300 304 261 213 206 206 206 215 243 270 294 97 128 170 306 327 4 356 356 45 50 351 345 1 0 349 356 4 7 19 43 49 45 43 41 37 38 40 41 42 44 41 40 41 42 42 45 49 51 56 64 70 74 75 78 82 83 82 86
300 282 260 237 230 239 238 225 223 233 240 244 250 252 250 249 246 244 248 251 246 249 255 234 201 204 238 253 253 258 259 244 225 223 225 221 223 248 290 74 122 299 316 331 5 344 10 75 15 341 333 311 342 348 357 6 12 27 46 50 51 53 51 45 43 45 47 50 52 51 51 51 50 51 53 54 58 64 69 73 79 81 81 83 87 88 90
325 310 302 293 288 284 266 237 216 222 238 234 224 226 236 240 241 242 244 247 246 242 243 247 241 225 223 228 230 244 261 257 230 225 236 220 197 193 201 179 261 313 321 35 107 19 16 343 333 334 309 207 329 345 352 2 19 40 46 45 50 59 60 57 56 54 55 57 58 57 58 57 56 58 63 65 68 73 76 80 85 87 85 85 90 94 97
207 225 242 254 280 312 302 289 290 310 291 272 252 237 238 237 239 242 241 244 249 245 234 239 256 259 250 239 231 241 273 294 295 288 292 268 151 146 148 153 196 302 327 87 89 24 314 309 323 332 184 195 345 0 4 5 22 60 61 58 66 69 65 66 70 68 66 68 69 65 65 65 62 63 66 70 73 77 79 82 87 91 92 94 96 99 102
234 217 222 229 230 242 265 272 274 270 265 267 273 270 254 240 239 243 240 237 243 246 238 231 239 246 247 247 240 236 247 254 243 252 296 24 119 148 170 186 216 266 298 101 98 354 311 317 328 46 163 151 31 25 16 6 9 27 35 43 64 81 81 82 82 79 79 82 83 81 79 76 72 71 71 73 76 78 79 82 87 91 94 97 100 102 105
271 249 230 230 229 228 241 259 266 260 250 252 263 267 257 238 235 245 247 240 238 241 237 231 231 231 231 234 237 237 242 242 221 194 179 171 178 203 214 212 78 93 127 137 137 355 342 343 27 138 137 109 55 40 25 10 9 16 17 19 28 46 72 89 90 88 88 89 89 93 93 88 82 80 78 76 78 81 83 86 91 92 91 93 97 100 103
282 277 253 234 236 243 250 258 262 261 257 256 266 276 276 259 243 247 250 245 240 239 237 232 230 226 220 222 229 234 248 262 250 180 162 164 163 157 168 218 352 40 94 146 224 8 21 43 114 130 118 86 51 41 42 42 34 26 23 24 25 33 54 73 80 87 96 90 82 86 91 90 89 90 87 83 84 86 86 88 94 97 97 98 101 103 105
270 282 274 245 229 236 245 248 250 253 254 252 254 262 268 263 253 251 251 246 242 239 235 233 234 227 212 207 216 225 232 245 254 174 143 150 157 165 186 242 298 20 82 135 221 353 19 62 122 127 98 66 54 50 54 65 63 50 46 47 37 35 57 75 80 83 92 93 87 88 90 90 93 98 97 95 96 96 94 95 100 102 103 105 107 108 109
247 272 281 268 239 227 229 235 238 241 246 251 253 253 252 249 249 254 264 278 282 272 252 239 239 235 215 201 204 216 220 218 217 201 168 161 165 172 187 226 250 210 121 142 181 266 348 60 124 126 91 61 62 71 68 72 78 73 67 68 67 66 74 82 82 81 85 97 108 113 112 108 108 108 107 105 105 104 104 107 109 106 104 105 107 109 111
259 247 253 255 248 235 232 239 244 242 242 249 255 253 249 248 254 255 255 277 294 292 275 248 237 238 225 204 197 203 208 207 203 201 199 192 180 178 188 209 237 239 169 154 170 197 234 170 161 148 104 75 77 90 88 85 87 84 79 80 84 84 83 86 93 96 97 101 105 108 111 116 117 115 113 113 113 112 113 115 114 110 106 107 112 118 120
269 254 248 247 244 240 240 242 240 235 232 234 241 249 252 255 260 258 241 238 264 281 283 274 260 258 253 235 211 198 196 196 194 193 194 195 193 194 199 208 222 225 178 163 170 189 203 212 216 186 131 111 93 80 89 95 94 92 93 95 94 93 96 103 109 110 110 109 107 106 110 118 121 121 122 122 120 120 120 119 118 116 115 114 116 122 124